Regional Weather Roundup
Issued by NWS Sterling, VA

Home | Current Version | Previous Version | Graphics & Text | Print | Product List | Glossary On
Versions: 1 2 3 4 5 6 7 8 9 10 11 12 13 14 15 16 17 18 19 20 21 22 23 24 25 26 27 28 29 30 31 32 33 34 35 36 37 38 39 40 41 42 43 44 45 46 47 48 49 50
216
ASUS41 KLWX 121111
RWRLWX

REGIONAL WEATHER ROUNDUP
NATIONAL WEATHER SERVICE BALTIMORE MD/WASHINGTON DC
600 AM EST TUE DEC 12 2017

Note: "FAIR" indicates few or no clouds below 12,000 feet
with no significant weather and/or obstructions to visibility.
 TC=TEMPERATURE CELSIUS

 * =Non NWS site. Station does not report precipitation (e.g. rain,
    snow, etc.), thunder, or fog.

DCZ001-MDZ009-015-VAZ040>042-051-053>054-121200-
WASHINGTON METRO

CITY           SKY/WX    TMP DP  RH WIND       PRES   REMARKS
WASHINGTON NAT CLOUDY    42  32  67 S8        29.64F
DULLES         CLOUDY    38  31  76 S9        29.61F
ANDREWS AFB    CLOUDY    41  30  66 SW10      29.63F
FT BELVOIR     CLOUDY    41  31  67 SE5       29.63F
QUANTICO       CLOUDY    42  33  70 SW10      29.66
COLLEGE PARK*  CLOUDY    41  30  64 CALM      29.64S
LEESBURG*      CLOUDY    37  32  81 S5        29.61F
MANASSAS*      MOCLDY    37  31  78 S6        29.63F
GAITHERSBURG*  MOCLDY    40  30  67 S7        29.60F

$$

MDZ006>007-011-014-121200-
BALTIMORE METRO

CITY           SKY/WX    TMP DP  RH WIND       PRES   REMARKS
BWI AIRPORT    CLOUDY    40  32  73 S6        29.63F
MD SCIENCE CTR   N/A     44  32  62 MISG      29.65F
MARTIN STATE   MOCLDY    45  37  76 S8        29.66F
ANNAPOLIS      CLOUDY    44  34  67 S6        29.64F
FORT MEADE*    CLOUDY    37  32  81 CALM      29.66F

$$

MDZ012-015-019>023-121200-
MARYLAND EASTERN SHORE

CITY           SKY/WX    TMP DP  RH WIND       PRES   REMARKS
OCEAN CITY     CLOUDY    48  39  71 SW10      29.71F
SALISBURY      PTCLDY    41  34  76 S7        29.70F
BAY BRIDGE AP* CLOUDY    45  36  70 S10G16    29.65F
CAMBRIDGE*     PTCLDY    43  37  81 S10       29.68F
EASTON*        CLEAR     45  27  49 S8        29.69F

$$

MDZ017>025-121200-
SOUTHERN MARYLAND

CITY           SKY/WX    TMP DP  RH WIND       PRES   REMARKS
PATUXENT RIVER CLOUDY    44  32  62 SW13G18   29.66F
ST INIGOES     CLOUDY    44  33  65 S9        29.67F
LEONARDTOWN*   CLOUDY    41  32  70 SW6       29.68F

$$

MDZ003>005-121200-
NORTH CENTRAL MARYLAND

CITY           SKY/WX    TMP DP  RH WIND       PRES   REMARKS
FREDERICK*     CLOUDY    37  28  70 CALM      29.64F
HAGERSTOWN APT CLOUDY    39  29  67 NW3       29.59F
WESTMINSTER*   CLOUDY    37  34  87 SE7       29.59F

$$

MDZ501>502-121200-
WESTERN MARYLAND

CITY           SKY/WX    TMP DP  RH WIND       PRES   REMARKS
OAKLAND*       CLOUDY    34  25  69 W12G18    29.50F WCI  25
CUMBERLAND*    CLOUDY    32  28  86 CALM      29.63F

$$

VAZ025>031-121200-
SHENANDOAH VALLEY

CITY           SKY/WX    TMP DP  RH WIND       PRES   REMARKS
WINCHESTER*    CLOUDY    37  28  70 SW6       29.58F
FRONT ROYAL*   FAIR      37  30  75 CALM      29.58S
LURAY*         CLOUDY    43  32  65 SW10      29.58F
NEW MARKET*    CLOUDY    38  28  68 W5        29.59S
STAUNTON*      CLOUDY    34  28  79 SW6       29.62F
WAYNESBORO*    CLOUDY    37  29  72 CALM      29.60F

$$

WVZ021-048>050-054>055-121200-
EASTERN WEST VIRGINIA PANHANDLE

CITY           SKY/WX    TMP DP  RH WIND       PRES   REMARKS
MARTINSBURG    CLOUDY    35  28  75 NW3       29.59S
PETERSBURG*    PTCLDY    39  28  65 W17G24    29.58S

$$

VAZ036>039-050-121200-
CENTRAL FOOTHILLS

CITY           SKY/WX    TMP DP  RH WIND       PRES   REMARKS
CHARLOTTESVILL MOCLDY    38  30  73 SW8       29.62F
CULPEPER*      FAIR      40  30  66 S6        29.63F
ORANGE*        CLOUDY    34  30  86 CALM      29.63F
GORDONSVILLE*  CLOUDY    36  31  82 SW6       29.62F
WARRENTON*     CLOUDY    41  28  60 S7        29.61F

$$

VAZ055>057-121200-
NORTH AND CENTRAL PIEDMONT

CITY           SKY/WX    TMP DP  RH WIND       PRES   REMARKS
FREDERICKSBRG* MOCLDY    40  33  74 S3        29.65F
STAFFORD*      CLOUDY    38  31  76 S5        29.68F

$$

NCZ024-NYZ072-PAZ021-071-VAZ022-071-121200-
OTHER REGIONAL OBSERVATIONS

CITY           SKY/WX    TMP DP  RH WIND       PRES   REMARKS
NEW YORK CITY  CLOUDY    46  38  73 VRB6      29.72F
PHILADELPHIA   CLOUDY    43  34  70 SE12      29.66F
PITTSBURGH     FLURRIES  37  30  75 W10G24    29.58R
ROANOKE        PTCLDY    39  29  67 CALM      29.66F
RICHMOND       CLOUDY    40  32  73 S10       29.68F
RALEIGH        CLOUDY    39  33  79 SW12      29.74F

$$

ANZ530>537-121200-
MARINE OBSERVATIONS

STATION/POSITION TIME  TEMP    WIND        PRES
                       AIR SEA DIR/SP/G
                 (UTC) (F)     (DEG/KT/KT) (MB)
THOMAS PT LIGHT  1100   45 47  190/ 19/ 21   N/A
BALT KEY BRIDGE  1048   43     200/  5/  6 1003.9F
COVE POINT       1048   44     210/ 15/ 19 1005.0F
LEWISETTA        1048   43 44  210/ 10/ 13 1004.7F
SOLOMONS ISLAND  1048   45 48  200/ 14/ 16 1004.1F
PINEY POINT      1048          200/ 12/ 13   N/A

$$





USA.gov is the U.S. government's official web portal to all federal, state and local government web resources and services.